Tracking 22459 objects as of 3-Mar-2021
HD Live streaming from Space Station
objects crossing your sky now

TITAN 3C TRANSTAGE DEB

Track TITAN 3C TRANSTAGE DEB now!
10-day predictions


NORAD ID: 26526
Int'l Code: 1965-108AM
Perigee: 555.2 km
Apogee: 26,781.3 km
Inclination: 27.0 °
Period: 470.5 minutes
Semi major axis: 20039 km
RCS: 0.0834 m2 (small)
Launch date: December 21, 1965
Source: United States (US)
Launch site: AIR FORCE EASTERN TEST RANGE (AFETR)

Note: This is SATELLITE DEBRIS
aabbcc
Your satellite tracking list
Your tracking list is empty




NASA's NSSDC Master Catalog

Two Line Element Set (TLE):
1 26526U 65108AM  21061.04583455  .00000687  00000-0  38042-2 0  9995
2 26526  27.0242 216.7305 6543662 221.6793  71.4604  3.06041691 20167
Source of the keplerian elements: AFSPC